This is the latest recevied weather packets stored in our database for station/object W4BOD. If no packets are shown the sender has not sent any weather packets the latest 1 day(s).
| Time | Temp. | Humidity | Pressure | Rain* | Wind** | Luminosity | Snow |
|---|---|---|---|---|---|---|---|
| 1777998261 | 22.22° C | 63% | 1012.3 hPa | 0 mm | 0.89 m/s, 182° | 333 W/m² | - |
| 1777997958 | 22.22° C | 65% | 1012.6 hPa | 0 mm | 1.79 m/s, 294° | 335 W/m² | - |
| 1777997655 | 22.22° C | 65% | 1012.6 hPa | 0 mm | 3.58 m/s, 196° | 326 W/m² | - |
| 1777997353 | 22.22° C | 63% | 1012.5 hPa | 0 mm | 2.24 m/s, 219° | 303 W/m² | - |
| 1777997051 | 22.22° C | 63% | 1012.8 hPa | 0 mm | 2.24 m/s, 265° | 330 W/m² | - |
| 1777996747 | 22.78° C | 62% | 1012.8 hPa | 0 mm | 4.02 m/s, 238° | 379 W/m² | - |
| 1777996443 | 22.22° C | 65% | 1013.1 hPa | 0 mm | 1.34 m/s, 271° | 413 W/m² | - |
| 1777996140 | 22.22° C | 65% | 1012.9 hPa | 0 mm | 2.24 m/s, 229° | 421 W/m² | - |
| 1777995836 | 21.67° C | 65% | 1013.1 hPa | 0 mm | 2.24 m/s, 227° | 466 W/m² | - |
| 1777995532 | 21.67° C | 65% | 1012.7 hPa | 0 mm | 4.47 m/s, 221° | 420 W/m² | - |
| 1777995229 | 21.67° C | 65% | 1012.6 hPa | 0 mm | 4.02 m/s, 220° | 344 W/m² | - |
| 1777994926 | 21.67° C | 67% | 1012.8 hPa | 0 mm | 1.34 m/s, 230° | 379 W/m² | - |
| 1777994623 | 21.67° C | 66% | 1012.7 hPa | 0 mm | 2.24 m/s, 198° | 410 W/m² | - |
| 1777994317 | 21.67° C | 68% | 1012.5 hPa | 0 mm | 2.24 m/s, 220° | 439 W/m² | - |
| 1777994015 | 21.67° C | 67% | 1012.6 hPa | 0 mm | 0.89 m/s, 246° | 545 W/m² | - |
| 1777993712 | 21.11° C | 67% | 1012.4 hPa | 0 mm | 3.13 m/s, 245° | 492 W/m² | - |
| 1777993409 | 21.11° C | 69% | 1012.4 hPa | 0 mm | 1.79 m/s, 191° | 536 W/m² | - |
| 1777993108 | 21.11° C | 70% | 1012.5 hPa | 0 mm | 0.89 m/s, 166° | 437 W/m² | - |
| 1777992807 | 20.56° C | 70% | 1012.4 hPa | 0 mm | 0 m/s | 373 W/m² | - |
| 1777992504 | 20.56° C | 70% | 1012.4 hPa | 0 mm | 1.79 m/s, 252° | 377 W/m² | - |
| 1777992203 | 20° C | 71% | 1012.3 hPa | 0 mm | 1.34 m/s, 244° | 359 W/m² | - |
| 1777991900 | 20° C | 72% | 1012.1 hPa | 0 mm | 1.34 m/s, 263° | 352 W/m² | - |
| 1777991597 | 20° C | 72% | 1012.4 hPa | 0 mm | 1.34 m/s, 227° | 328 W/m² | - |
| 1777991294 | 19.44° C | 72% | 1012.3 hPa | 0 mm | 1.79 m/s, 236° | 265 W/m² | - |
| 1777990992 | 19.44° C | 73% | 1012.3 hPa | 0 mm | 1.79 m/s, 168° | 274 W/m² | - |
* Rain latest hour (hover to see other rain measurements)
** Current wind speed in m/s (hover to see current wind gust speed)